FW8987 Weather Reports


time (UTC)temp
F
wind
direction
speed
knots
gust
knots
rain 1hr
in
rain 24hr
in
rain mn
in
humidity
%
barometer
mb
20260503004520 43 54 1.7 7.0 0.02 0.06 0.04 92 1010.6
20260503003535 43 55 1.7 6.1 0.03 0.06 0.04 95 1010.3
20260503002530 43 95 1.7 6.1 0.04 0.06 0.04 95 1010.2
20260503001526 44 42 2.6 7.0 0.03 0.05 0.03 95 1010.1
20260503000521 44 70 1.7 7.0 0.03 0.05 0.03 95 1010.1
20260502235517 44 82 2.6 5.2 0.03 0.05 0.03 95 1010.0
20260502234532 45 75 2.6 6.1 0.02 0.04 0.02 94 1009.9
20260502233527 45 75 3.5 7.0 0.01 0.03 0.01 93 1009.7
20260502232543 46 59 2.6 6.1 0.00 0.02 0.00 91 1009.7
20260502231518 46 48 4.3 8.7 0.00 0.02 0.00 89 1009.4
20260502230533 48 49 4.3 9.6 0.00 0.02 0.00 86 1009.4
20260502225529 50 257 1.7 5.2 0.00 0.02 0.00 86 1008.8
20260502224525 50 267 1.7 3.5 0.00 0.02 0.00 87 1008.7
20260502223559 50 228 0.0 0.9 0.00 0.02 0.00 89 1008.6
20260502222555 50 204 0.0 0.9 0.00 0.02 0.00 90 1008.4
20260502221530 49 209 0.9 1.7 0.00 0.02 0.00 91 1008.3
20260502220525 50 197 0.0 0.9 0.00 0.02 0.00 91 1008.3
20260502215540 50 206 0.0 0.9 0.01 0.02 0.02 90 1008.2
20260502214516 50 202 0.0 0.9 0.01 0.02 0.02 89 1008.3
20260502213531 50 197 0.0 0.9 0.01 0.02 0.02 90 1008.1
20260502212527 50 200 0.0 0.9 0.02 0.02 0.02 89 1008.2
20260502211523 50 0.0 0.0 0.02 0.02 0.02 86 1008.2
20260502210518 51 208 0.0 1.7 0.02 0.02 0.02 85 1008.1
20260502205533 52 230 0.9 3.5 0.01 0.01 0.01 78 1008.1
20260502204528 53 237 3.5 6.1 0.01 0.01 0.01 76 1008.4
20260502203523 53 251 5.2 8.7 0.01 0.01 0.01 72 1008.4
20260502202518 54 253 5.2 7.8 0.00 0.00 0.00 69 1008.4
20260502201535 55 250 6.1 12.2 0.00 0.00 0.00 65 1008.3
20260502200530 56 258 5.2 12.2 0.00 0.00 0.00 58 1008.2
20260502195525 56 223 2.6 5.2 0.00 0.00 0.00 61 1008.1
20260502194520 56 247 2.6 5.2 0.00 0.00 0.00 60 1008.2
20260502193516 56 263 2.6 5.2 0.00 0.00 0.00 60 1008.2
20260502192531 56 161 0.0 1.7 0.00 0.00 0.00 59 1008.2
20260502191526 56 217 0.9 1.7 0.00 0.00 0.00 61 1008.5
20260502190522 56 195 0.0 0.9 0.00 0.00 0.00 62 1008.3
20260502185517 56 0.0 0.0 0.00 0.00 0.00 62 1008.1
20260502184532 57 179 0.0 0.9 0.00 0.00 0.00 61 1007.8
20260502183548 58 174 0.0 0.9 0.00 0.00 0.00 58 1007.9
20260502182523 58 172 0.0 0.9 0.00 0.00 0.00 56 1007.9
20260502181517 59 176 0.9 1.7 0.00 0.00 0.00 54 1007.8
20260502180533 59 240 0.9 2.6 0.00 0.00 0.00 52 1007.7
20260502163530 64 233 1.7 2.6 0.00 0.00 0.00 41 1007.0
20260502162526 64 231 1.7 2.6 0.00 0.00 0.00 41 1007.1
20260502161521 64 238 3.5 6.1 0.00 0.00 0.00 40 1007.2
20260502160537 65 272 4.3 7.8 0.00 0.00 0.00 38 1007.3
20260502151532 69 257 5.2 11.3 0.00 0.00 0.00 25 1006.8
20260502150528 69 278 7.0 13.0 0.00 0.00 0.00 24 1006.9
20260502130551 71 255 7.0 12.2 0.00 0.00 0.00 22 1007.5
20260502123517 71 254 7.0 13.9 0.00 0.00 0.00 24 1007.8
20260502122532 72 233 6.1 14.8 0.00 0.00 0.00 23 1008.0
20260502121527 70 241 6.1 9.6 0.00 0.00 0.00 24 1008.0
20260502120523 70 250 7.0 13.0 0.00 0.00 0.00 26 1008.2
20260502115518 70 244 6.1 12.2 0.00 0.00 0.00 25 1008.3
20260502114533 70 247 7.0 13.9 0.00 0.00 0.00 26 1008.3
20260502113530 70 226 4.3 8.7 0.00 0.00 0.00 27 1008.7
20260502112525 69 237 5.2 9.6 0.00 0.00 0.00 27 1008.7
20260502111540 69 230 6.1 12.2 0.00 0.00 0.00 29 1008.8
20260502110516 68 229 5.2 9.6 0.00 0.00 0.00 30 1008.9
20260502105531 68 240 5.2 9.6 0.00 0.00 0.00 32 1009.0
20260502104527 68 218 4.3 9.6 0.00 0.00 0.00 32 1009.1
20260502103542 67 253 6.1 11.3 0.00 0.00 0.00 33 1009.3
20260502102517 67 228 6.1 12.2 0.00 0.00 0.00 33 1009.1
20260502100547 66 253 6.1 11.3 0.00 0.00 0.00 35 1009.4
20260502091522 64 251 7.0 13.0 0.00 0.00 0.00 39 1009.7
20260502090517 64 259 7.0 13.0 0.00 0.00 0.00 39 1009.7
20260502071524 60 241 4.3 7.8 0.00 0.00 0.00 46 1010.8
20260502070540 60 244 5.2 11.3 0.00 0.00 0.00 46 1010.9
20260502065515 59 248 4.3 7.8 0.00 0.00 0.00 47 1011.0
20260502064531 59 251 6.1 12.2 0.00 0.00 0.00 48 1011.0
20260502063546 58 242 4.3 7.8 0.00 0.00 0.00 49 1011.1
20260502062522 58 250 4.3 8.7 0.00 0.00 0.00 50 1011.0
20260502061517 58 249 5.2 11.3 0.00 0.00 0.00 50 1010.9
20260502060533 57 257 5.2 8.7 0.00 0.00 0.00 51 1010.9
20260502055528 57 256 4.3 7.0 0.00 0.00 0.00 52 1010.9
20260502054523 56 251 3.5 7.0 0.00 0.00 0.00 53 1011.0
20260502053517 56 219 1.7 3.5 0.00 0.00 0.00 55 1011.2
20260502052533 55 244 2.6 5.2 0.00 0.00 0.00 56 1011.2
20260502051528 55 219 1.7 3.5 0.00 0.00 0.00 56 1011.2
20260502050524 54 229 1.7 6.1 0.00 0.00 0.00 57 1011.1
20260502045519 54 216 1.7 5.2 0.00 0.00 0.00 58 1011.2
20260502044534 53 208 0.9 3.5 0.00 0.00 0.00 59 1011.1
20260502043530 52 239 1.7 6.1 0.00 0.00 0.00 60 1011.2
20260502042605 52 224 2.6 5.2 0.00 0.00 0.00 61 1011.3
20260502041520 52 228 0.9 2.6 0.00 0.00 0.00 61 1011.4
20260502040516 52 203 1.7 3.5 0.00 0.00 0.00 61 1011.4
20260502035531 51 209 0.9 2.6 0.00 0.00 0.00 62 1011.5
20260502034526 50 213 0.0 1.7 0.00 0.00 0.00 63 1011.6
20260502033542 50 0.0 0.0 0.00 0.00 0.00 63 1011.6
20260502032516 51 225 0.0 1.7 0.00 0.00 0.00 63 1011.7
20260502031532 51 231 1.7 2.6 0.00 0.00 0.00 61 1011.8
20260502030527 51 231 1.7 5.2 0.00 0.00 0.00 61 1011.8
20260502025523 52 234 1.7 6.1 0.00 0.00 0.00 60 1011.9
20260502024517 52 212 0.9 2.6 0.00 0.00 0.00 60 1012.0
20260502023533 53 242 1.7 7.0 0.00 0.00 0.00 59 1012.1
20260502022528 53 220 2.6 5.2 0.00 0.00 0.00 59 1012.2
20260502021525 53 223 1.7 5.2 0.00 0.00 0.00 58 1012.2
20260502020519 54 223 2.6 6.1 0.00 0.00 0.00 57 1012.3
20260502015535 54 235 3.5 7.0 0.00 0.00 0.00 56 1012.4
20260502014530 54 225 2.6 5.2 0.00 0.00 0.00 57 1012.4
20260502013525 54 231 1.7 5.2 0.00 0.00 0.00 56 1012.6
20260502012520 55 234 2.6 7.0 0.00 0.00 0.00 55 1012.6
20260502011516 55 228 2.6 5.2 0.00 0.00 0.00 54 1012.6
20260502010532 55 221 1.7 5.2 0.00 0.00 0.00 54 1012.6
20260502005526 55 217 1.7 5.2 0.00 0.00 0.00 54 1012.7